DIRECTV 14

Last updated on Wed Sep 09 2026 00:03:00 GMT+0000 (Coordinated Universal Time)

1 40333U 14078B 26251.49674218 -.00000146 00000+0 00000+0 0 9990 2 40333 0.0174 90.8899 0000515 314.4240 21.8369 1.00271281 42871
UTC large
Height (km)
Speed (km/s)
/
Latitude / Longitude
Inclination (degrees)
Orbital Period (minutes)
Azimuth
Elevation
Range (km)
Doppler Factor

Next 0 passes for location: London (51.5072 / 0.1276)

No passes found over London.
DIRECTV 14